Powrót do katalogu

USA 445

AktywnyMilitariaVLEO
NORAD 62344·PAYLOAD·🇺🇸 United States

Wystrzelony Dec 17, 2024 z Vandenberg Space Force Base

Loading…

Następne Przeloty (najbliższe 24 godziny)

TLE

NieaktualneSource: Mike McCants

Epoka: Aug 19, 2026, 20:50 UTC

1 62344U 24243E   26231.86850236 0.00000000  00000-0  00000-0 0    09
2 62344  70.0205 137.3017 0002000  96.1054 263.8946 14.96713236    04

Śledź USA 445 w czasie rzeczywistym z AllMySat

Download on the App Store